Location: Sungai Han
(2.2000°N, 113.9333°E)
Time: 08:19:26
(UTC+00:00)

Daily predictions for brighter satellites

Satellite Brightness Start Highest point End
(mag) Time Altitude Azimuth Time Altitude Azimuth Time Altitude Azimuth
Cosmos 1763 Rocket 3.5 12:00:09 10° NNW 12:05:13 73° WSW 12:06:01 60° SSW
USA 267 4.0 12:10:24 35° NNE 12:10:24 35° NNE 12:14:39 10° NNW
Cosmos 2360 Rocket 2.5 12:08:57 10° SSW 12:13:21 56° SSW 12:13:21 56° SSW
Cosmos 2026 Rocket 4.4 12:21:56 10° SSW 12:27:58 59° W 12:29:14 49° NW
ARIANE 5 R/B 4.5 12:31:39 10° W 12:34:08 20° WNW 12:34:08 20° WNW
Cosmos 2322 Rocket 4.1 12:35:15 10° SW 12:39:50 25° WNW 12:42:45 17° NNW
Cosmos 2227 Rocket 4.4 12:53:37 10° WNW 12:57:37 20° WSW 12:58:35 19° WSW
Ariane H10+ 4.5 19:05:26 30° E 19:05:26 30° E 19:07:49 10° E
Ariane H10-3 4.2 19:37:44 23° E 19:37:44 23° E 19:38:52 10° E
Intelsat 5-1 Rocket 4.3 19:41:10 63° SSW 19:43:09 72° SSE 19:49:57 10° ENE
USA 238 DEB 3.9 20:00:13 58° ESE 20:00:30 58° ESE 20:06:39 10° NE
USA 238 3.9 20:00:12 57° SE 20:00:35 58° ESE 20:06:45 10° NE
Envisat 3.7 20:03:29 10° NNE 20:14:46 - S 20:08:12 51° E
Cosmos 2173 Rocket 4.3 20:03:09 10° S 20:09:19 64° E 20:15:23 10° NNE
Cosmos 2251 Rocket 3.9 20:15:00 60° ENE 20:15:12 61° ENE 20:20:21 10° SSE
Centaur AC-42 3.5 20:23:05 36° SSW 20:25:24 55° SSE 20:49:40 10° ENE
ARIANE 3 DEB 4.4 20:24:09 55° NW 20:25:51 71° N 20:39:44 10° E
GPS 2-17 Rocket1 3.5 20:28:48 56° SSE 20:28:48 56° SSE 20:32:48 10° ESE
CZ-2C R/B 3.3 20:26:49 10° NNE 20:32:15 72° ESE 20:37:24 10° S
CZ-2C R/B 3.5 20:36:47 10° NNE 20:40:33 53° ESE 20:44:24 10° S
Ariane H10 3.2 20:40:31 66° WSW 20:41:07 86° S 20:52:07 10° E
Cosmos 2100 Rocket 4.0 20:36:16 10° SSW 20:42:16 53° W 20:48:13 10° N
Lacrosse 5 rocket 3.8 20:39:11 10° S 20:42:44 24° ESE 20:46:22 10° ENE
ARIANE 5 R/B 3.4 20:35:45 30° W 20:45:14 71° S 20:49:45 10° E
NOAA 11 4.4 20:40:54 10° NNE 20:46:18 70° ESE 20:51:42 10° S
Cosmos 192 4.3 20:42:01 10° SSW 20:46:58 88° E 20:51:54 10° NNE
Cosmos 2061 Rocket 4.3 20:41:06 10° S 20:47:20 69° E 20:53:29 10° N
GP-B 4.0 20:44:50 10° SSE 20:49:07 49° E 20:53:22 10° NNE
Okean 1 4.3 20:51:11 33° NNW 20:51:11 33° NNW 20:53:33 10° N
Cosmos 2016 Rocket 3.9 20:44:50 10° S 20:51:07 86° W 20:57:28 10° N
H-2A R/B 2.5 20:48:39 10° N 20:52:09 69° WNW 20:52:09 69° WNW
Cosmos 407 Rocket 3.4 20:48:41 10° NNW 20:54:01 85° W 20:59:20 10° S
Cosmos 1633 Rocket 2.9 20:54:15 10° N 20:58:33 70° W 21:02:52 10° S
Cosmos 1331 Rocket 4.1 20:56:46 13° SSW 21:01:04 47° WNW 21:05:59 10° N
Maqsat-H 3.4 20:52:17 25° W 21:01:49 64° N 21:06:42 10° ENE
Spot 4 Rocket 4.4 20:57:40 10° N 21:02:25 40° WNW 21:07:11 10° SW
Meteor 2-4 Rocket 4.1 20:57:00 10° S 21:02:54 71° E 21:08:43 10° NNE
GPS 2-15 Rocket1 4.1 21:03:23 28° NW 21:04:50 33° NNW 21:09:13 10° NE
Milstar 3 Cent rocket 2.9 20:57:51 14° SW 21:05:03 58° SSE 21:10:01 10° ENE
FUSE 4.0 21:02:56 32° W 21:05:23 64° NNW 21:10:43 10° NE
SWIFT 4.4 21:03:59 12° NNW 21:06:23 19° NNE 21:09:21 10° ENE
Meteor 1-11 Rocket 3.7 21:00:56 10° N 21:06:50 78° W 21:12:39 10° S
Cosmos 2228 Rocket 3.6 21:03:12 10° S 21:07:43 65° E 21:12:11 10° NNE
CZ-2C R/B 2.4 21:03:40 10° S 21:08:49 79° WSW 21:13:59 10° NNW
ARIANE 5 DEB (SYLDA) 3.2 21:07:29 28° NW 21:08:50 38° N 21:11:09 10° ENE
Aurora 2 Rocket 3.9 21:06:49 26° W 21:10:41 59° NNW 21:19:25 10° NE
Cosmos 1666 Rocket 4.1 21:06:49 10° NNW 21:10:52 35° W 21:14:57 10° SSW
DELTA 4 R/B 3.1 21:11:47 15° SSW 21:13:41 37° SE 21:20:02 10° ENE
CZ-4B R/B 3.5 21:08:26 10° N 21:13:42 83° WNW 21:18:56 10° SSW
ATLAS CENTAUR R/B 3.3 21:15:36 10° SSE 21:16:41 14° ESE 21:17:45 10° E
Ariane H10+ 2.9 21:14:27 23° WSW 21:17:07 64° S 21:36:41 10° E
PSLV R/B 4.2 21:17:28 10° NNW 21:21:15 32° WNW 21:25:02 10° SW
H-2A R/B 4.4 21:18:34 10° NE 21:23:07 28° ESE 21:27:35 10° SSE
Cosmos 2084 3.7 21:19:01 10° NW 21:23:21 54° WSW 21:27:55 10° SSE
FALCON 9 DEB 2.8 21:21:39 10° SW 21:24:48 85° WNW 21:27:58 10° NNE
Cosmos 1697 Rocket 2.8 21:19:15 10° NNW 21:24:53 80° ENE 21:30:32 10° SSE
Cosmos 2098 Rocket 3.7 21:22:29 13° NW 21:25:00 26° W 21:28:35 10° SSW
SWAS 4.4 21:24:03 10° SSW 21:28:20 81° WNW 21:32:36 10° NNE
SL-8 R/B 3.9 21:24:24 11° SW 21:28:52 51° NW 21:33:29 10° NNE
GPS 2-12 Rocket1 3.4 21:25:07 13° WSW 21:29:23 65° SSE 21:34:07 10° ENE
Meteor 1-31 Rocket 3.4 21:28:55 10° NNE 21:32:41 60° E 21:36:31 10° S
Landsat 4 3.6 21:29:22 10° NNE 21:33:02 88° W 21:36:44 10° SSW
Cosmos 676 Rocket 4.2 21:28:40 10° N 21:33:55 80° ENE 21:39:13 10° SSE
Cosmos 2233 Rocket 4.1 21:29:07 10° SSW 21:35:17 59° W 21:41:28 10° N
Yuri Rocket 3.7 21:31:20 13° WSW 21:36:10 48° NNW 21:40:28 10° NE
Cosmos 1470 Rocket 4.2 21:38:07 10° NNW 21:42:01 32° W 21:45:59 10° SSW
CZ-3 Stage 3 3.1 21:40:24 10° SW 21:43:22 58° SE 21:53:38 10° ENE
COSMOS 2487 3.6 21:41:23 10° S 21:44:05 38° ESE 21:46:47 10° NNE
SL-08 R/B 3.8 21:42:34 10° S 21:46:48 37° WSW 21:51:03 10° NW
COSMO-SKYMED 1 3.9 21:44:30 10° SSE 21:48:39 44° ENE 21:52:46 10° N
Ariane 44LP R/B 1.9 21:46:46 10° W 21:50:07 51° N 21:52:09 10° E
ATLAS 2A CENTAUR R/B 3.5 21:45:13 10° SW 21:51:11 56° SSE 22:00:35 10° ENE
OAO 3 Rocket 3.7 21:47:07 10° WSW 21:51:35 41° NW 21:56:07 10° NE
Tsikada Rocket 4.4 21:45:33 10° N 21:51:43 72° E 21:57:51 10° S
Ariane H10+ 1.9 21:54:04 10° W 21:59:54 45° SSW 22:02:32 10° ESE
BREEZE-M DEB (TANK) 3.9 21:51:31 10° SSW 22:00:59 53° SE 22:04:07 10° ENE
